Meknes, Morocco

6:05 AM WET on May 28, 2017 (GMT +0000)
Meknes

Weather History for GMFM - November, 2012

Change the Weather History Date:

Wednesday, November 28, 2012

  Actual Average (GMFF) Record (GMFF)
Temperature  
Mean Temperature 46 °F -  
Max Temperature 51 °F 60 °F 71 °F (2000)
Min Temperature 42 °F 42 °F 32 °F (1999)
Degree Days  
Heating Degree Days 18    
Moisture  
Dew Point 44 °F    
Average Humidity 87    
Maximum Humidity 93    
Minimum Humidity 77    
Precipitation  
Precipitation 0.28 in 0.11 in - ()
Sea Level Pressure  
Sea Level Pressure 29.99 in    
Wind  
Wind Speed 9 mph ()    
Max Wind Speed 15 mph    
Max Gust Speed -    
Visibility 3.8 miles    
Events Rain    
Averages and records for this station are not official NWS values.
T = Trace of Precipitation, MM = Missing Value Source: Averaged Metar Reports

Daily Weather History Graph

Daily Weather History Graph

Search for Another Location

Airport or City:

Trip Planner

Search our weather history database for the weather conditions in past years. The results will help you decide how hot, cold, wet, or windy it might be!

Date:

Astronomy

Nov. 28, 2012 Rise Set
Actual Time 7:06 AM WET 5:13 PM WET
Civil Twilight 6:39 AM WET 5:40 PM WET
Nautical Twilight 6:08 AM WET 6:11 PM WET
Astronomical Twilight 5:38 AM WET 6:41 PM WET
Moon 5:18 PM WET 6:52 AM WET
Length of Visible Light 11h 01m
Length of Day
10h 06m
Full, 100% of the Moon is Illuminated
Nov 28
Full
Nov 28
Full
Dec 6
Last Quarter
Dec 13
New
Dec 20
First Quarter

Hourly Weather History & Observations

Time (WET) Temp. Windchill Dew Point Humidity Pressure Visibility Wind Dir Wind Speed Gust Speed Precip Events Conditions
12:00 AM 47 °F - 42 °F 79% 30.01 in 4 mi WSW 9.2 mph - -  
12:00 AM 46.4 °F 41.9 °F 42.8 °F 87% 30.01 in 5.0 mi WSW 9.2 mph - N/A   Mostly Cloudy
1:00 AM 46.4 °F 42.9 °F 42.8 °F 87% 30.01 in 5.0 mi WSW 6.9 mph - N/A   Mostly Cloudy
2:00 AM 46.4 °F 42.9 °F 42.8 °F 87% 30.01 in 5.0 mi WSW 6.9 mph - N/A   Mostly Cloudy
3:00 AM 45 °F - 42 °F 83% 30.01 in 5 mi SW 8.1 mph - -   Mostly Cloudy
3:00 AM 44.6 °F 40.2 °F 41.0 °F 87% 30.01 in 5.0 mi SW 8.1 mph - N/A   Mostly Cloudy
4:00 AM 46.4 °F 42.9 °F 42.8 °F 87% 29.95 in 5.0 mi WSW 6.9 mph - N/A   Mostly Cloudy
5:00 AM 46.4 °F 41.1 °F 42.8 °F 87% 30.01 in 5.0 mi SW 11.5 mph - N/A   Scattered Clouds
6:00 AM 47 °F - 44 °F 86% 29.96 in - Calm Calm - -   Overcast
6:00 AM 46.4 °F 40.1 °F 44.6 °F 93% 29.95 in 3.1 mi WSW 15.0 mph - N/A Rain Light Rain
6:05 AM 46.4 °F 41.5 °F 44.6 °F 93% 29.95 in 1.9 mi WSW 10.4 mph - N/A Rain Light Rain
7:00 AM 46.4 °F 40.4 °F 44.6 °F 93% 29.95 in - WSW 13.8 mph - N/A Rain Light Rain
8:00 AM 46.4 °F 40.1 °F 44.6 °F 93% 29.95 in 2.5 mi WSW 15.0 mph - N/A Rain Rain
8:42 AM 46.4 °F 40.4 °F 44.6 °F 93% 29.95 in 3.1 mi SW 13.8 mph - N/A   Mostly Cloudy
9:00 AM 47 °F - 45 °F 88% 29.99 in 3 mi SW 12.7 mph - -   Partly Cloudy
9:00 AM 48.2 °F - 44.6 °F 87% 29.98 in 3.1 mi SW 12.7 mph - N/A   Mostly Cloudy
10:00 AM - - - N/A% 29.98 in 3.1 mi SW 13.8 mph - N/A   Mostly Cloudy
11:00 AM 50.0 °F - 46.4 °F 87% 29.98 in 3.1 mi WSW 12.7 mph - N/A   Mostly Cloudy
12:00 PM 50 °F - 46 °F 80% 29.99 in 3 mi WSW 12.7 mph - -  
12:00 PM 50.0 °F - 46.4 °F 87% 29.98 in 3.1 mi WSW 12.7 mph - N/A Rain Rain
1:00 PM 50.0 °F - 46.4 °F 87% 29.98 in 3.1 mi WSW 13.8 mph - N/A   Mostly Cloudy
2:00 PM 50.0 °F - 44.6 °F 82% 29.95 in 3.1 mi West 6.9 mph - N/A Rain Light Rain
3:00 PM 48 °F - 46 °F 88% 29.98 in 3 mi West 10.4 mph - - Rain Light Rain
3:00 PM 48.2 °F - 46.4 °F 93% 29.95 in 3.1 mi West 10.4 mph - N/A Rain Rain
4:00 PM 48.2 °F - 46.4 °F 93% 29.98 in 3.1 mi West 9.2 mph - N/A Rain Rain
5:00 PM 48.2 °F - 44.6 °F 87% 29.98 in 3.1 mi West 9.2 mph - N/A   Mostly Cloudy
6:00 PM 47 °F - 42 °F 78% 30.02 in 4 mi West 6.9 mph - - Rain Light Rain
6:00 PM 46.4 °F 42.9 °F 42.8 °F 87% 30.01 in 3.7 mi West 6.9 mph - N/A   Mostly Cloudy
7:00 PM 46.4 °F 44.3 °F 42.8 °F 87% 30.01 in 3.7 mi WSW 4.6 mph - N/A   Mostly Cloudy
8:00 PM 46.4 °F 44.3 °F 41.0 °F 81% 30.04 in 3.7 mi West 4.6 mph - N/A   Mostly Cloudy
9:00 PM 45 °F - 40 °F 77% 30.08 in 4 mi WSW 4.6 mph - -   Mostly Cloudy
9:00 PM 44.6 °F 42.2 °F 41.0 °F 87% 30.04 in 3.7 mi WSW 4.6 mph - N/A   Mostly Cloudy
10:00 PM 42.8 °F 40.1 °F 39.2 °F 87% 30.06 in 5.0 mi SW 4.6 mph - N/A   Scattered Clouds
11:00 PM 42.8 °F 41.1 °F 39.2 °F 87% 30.06 in 6.2 mi SW 3.5 mph - N/A   Partly Cloudy